Content
SEND FEEDBACK

Daily
Averages
Monthly
Summary
United States of America

PLOVER, WISCONSIN


Home > North America > United States > Wisconsin
Elevation: 1070 feet     Latitude: 44 22N     Longitude: 089 32W

WEATHER
 
SELECT A DAY
Number of Records: 425,774;   Date Range: 8/5/97 - 11/21/14
 
SHARE

PRINT THIS DATA

[ ← Previous Day ]
WEATHER ALMANAC - JANUARY 23, 2013
[ Next Day → ]
[ °C ]   °F
Weather ElementAverageHighLow
Temperature2.4 °F11.7 °F (2:55 pm)-10.8 °F (1:55 am)
Dewpoint-5.3 °F6.6 °F (3:35 pm)-15.9 °F (1:55 am)
Humidity70.4 %83 % (3:35 pm)54 % (7:55 pm)
Barometer30.17 in30.42 in (11:35 pm)30.03 in (1:15 pm)
Wind Speed6.9 mph23 mph (4:55 pm)
Wind Gust27.6 mph (4:55 pm)
Weather ElementAverage
Visibility8 mi
Wind DirectionWSW (247.7 °)

Weather ElementTotal
Precipitation---
Heating Degree Days64.6 (Base 65)
Averaged from 71 records on January 23, 2013
WEATHER CONDITIONS BREAKOUT
WIND DIRECTION BREAKOUT
WEATHER BY HOUR - JANUARY 23, 2013
[ °C ]   °F
Local TimeTemperatureDewpointHumidityBarometerVisibilityWind DirectionWind SpeedGust SpeedPrecipitationEventsConditions
12:35 AM-8.9 °F-13.9 °F79 %30.22 in10.0 miCalmClear
12:55 AM-9.8 °F-14.8 °F78 %30.20 in10.0 miCalmClear
1:15 AM-10.3 °F-15.2 °F79 %30.21 in10.0 miCalmClear
1:35 AM-10.5 °F-15.0 °F80 %30.20 in10.0 miCalmClear
1:55 AM-10.8 °F-15.9 °F78 %30.20 in10.0 miCalmClear
2:15 AM-10.7 °F-15.7 °F78 %30.20 in10.0 miCalmScattered Clouds
2:35 AM-10.3 °F-15.0 °F80 %30.20 in10.0 miCalmMostly Cloudy
2:55 AM-8.7 °F-13.4 °F80 %30.19 in10.0 miCalmOvercast
3:15 AM-7.1 °F-11.9 °F79 %30.18 in10.0 miCalmOvercast
3:35 AM-3.8 °F-8.5 °F80 %30.18 in10.0 miWSW (240°)4.6 mphOvercast
3:55 AM-2.2 °F-8.5 °F75 %30.17 in10.0 miWSW (240°)3.5 mphOvercast
4:15 AM-1.8 °F-8.0 °F75 %30.17 in10.0 miSW (230°)4.6 mphOvercast
4:35 AM-1.7 °F-7.8 °F75 %30.16 in10.0 miSW (230°)4.6 mphOvercast
4:55 AM-1.3 °F-7.6 °F75 %30.16 in10.0 miCalmOvercast
5:15 AM-0.8 °F-6.9 °F75 %30.15 in10.0 miSW (230°)3.5 mphOvercast
5:35 AM-0.4 °F-6.7 °F75 %30.14 in10.0 miSW (230°)4.6 mphOvercast
5:55 AM0.0 °F-6.2 °F75 %30.14 in10.0 miSW (230°)3.5 mphOvercast
6:15 AM0.3 °F-5.8 °F75 %30.14 in10.0 miSW (230°)3.5 mphOvercast
6:35 AM0.5 °F-5.8 °F75 %30.14 in10.0 miWSW (240°)3.5 mphOvercast
6:55 AM1.2 °F-5.8 °F72 %30.13 in10.0 miWSW (240°)4.6 mphOvercast
7:15 AM1.4 °F-5.4 °F73 %30.13 in10.0 miWSW (250°)4.6 mphOvercast
7:35 AM1.8 °F-5.8 °F71 %30.13 in10.0 miWSW (250°)4.6 mphOvercast
7:55 AM2.1 °F-5.3 °F71 %30.13 in10.0 miWSW (250°)4.6 mphOvercast
8:15 AM2.1 °F-5.1 °F72 %30.13 in10.0 miWSW (240°)5.8 mphOvercast
8:35 AM2.3 °F-4.9 °F72 %30.12 in10.0 miWSW (250°)5.8 mphOvercast
8:55 AM2.8 °F-4.5 °F71 %30.12 in7.0 miWSW (240°)5.8 mphOvercast
9:15 AM3.2 °F-4.2 °F71 %30.12 in7.0 miWSW (250°)8.1 mphOvercast
9:35 AM3.9 °F-3.6 °F71 %30.12 in7.0 miWSW (240°)5.8 mphOvercast
9:55 AM4.5 °F-3.1 °F71 %30.12 in7.0 miWSW (250°)6.9 mphOvercast
10:15 AM5.0 °F-2.7 °F70 %30.12 in5.0 miWSW (250°)9.2 mphHaze
10:35 AM5.7 °F-2.4 °F69 %30.12 in5.0 miWest (270°)6.9 mphHaze
10:55 AM6.6 °F-1.3 °F70 %30.11 in5.0 miWest (270°)5.8 mphSnowLight Snow
11:15 AM7.3 °F-1.1 °F68 %30.10 in7.0 miWSW (250°)10.4 mphOvercast
11:35 AM8.4 °F0.3 °F70 %30.08 in4.0 miWest (270°)5.8 mphHaze
11:55 AM9.1 °F1.2 °F70 %30.07 in5.0 miWNW (300°)5.8 mphSnowLight Snow
12:15 PM9.3 °F1.4 °F70 %30.06 in7.0 miWest (270°)4.6 mphSnowLight Snow
12:35 PM9.5 °F1.9 °F71 %30.05 in5.0 miWest (280°)8.1 mphHaze
12:55 PM9.9 °F2.5 °F72 %30.04 in3.0 miWest (270°)9.2 mphHaze
1:15 PM10.2 °F3.2 °F73 %30.03 in3.0 miWNW (290°)5.8 mphSnowLight Snow
1:35 PM10.4 °F3.4 °F73 %30.03 in3.0 miWest (260°)6.9 mphSnowLight Snow
1:55 PM10.9 °F3.6 °F72 %30.03 in3.0 miWest (260°)9.2 mphSnowLight Snow
2:15 PM11.3 °F3.7 °F72 %30.03 in4.0 miWest (280°)8.1 mphHaze
2:35 PM11.1 °F4.3 °F74 %30.03 in2.0 miWNW (290°)10.4 mphSnowLight Snow
2:55 PM11.7 °F2.3 °F66 %30.03 in7.0 miWNW (300°)8.1 mph17.3 mphOvercast
3:15 PM11.1 °F3.9 °F73 %30.04 in2.0 miWNW (290°)8.1 mphSnowLight Snow
3:35 PM10.9 °F6.6 °F83 %30.05 in1.0 miWNW (300°)5.8 mphSnowLight Snow
3:55 PM11.1 °F4.6 °F75 %30.06 in3.0 miNW (310°)8.1 mphSnowLight Snow
4:15 PM11.1 °F2.1 °F67 %30.07 in2.0 miWNW (300°)11.5 mph19.6 mphSnowLight Snow
4:35 PM10.2 °F5.0 °F79 %30.08 in1.5 miWNW (300°)10.4 mphSnowLight Snow
4:55 PM9.5 °F1.4 °F70 %30.10 in4.0 miNNW (330°)23.0 mph27.6 mphHaze
5:15 PM8.6 °F0.7 °F70 %30.12 in7.0 miNW (320°)13.8 mph19.6 mphOvercast
5:35 PM7.9 °F-3.8 °F59 %30.14 in10.0 miNNW (330°)11.5 mph21.9 mphScattered Clouds
5:55 PM7.0 °F-4.4 °F60 %30.16 in10.0 miNNW (340°)13.8 mph19.6 mphClear
6:15 PM6.4 °F-4.5 °F61 %30.18 in10.0 miNNW (340°)16.1 mph21.9 mphClear
6:35 PM5.9 °F-6.3 °F57 %30.20 in10.0 miNNW (340°)13.8 mph25.3 mphClear
6:55 PM5.0 °F-5.8 °F61 %30.22 in10.0 miNNW (340°)13.8 mph19.6 mphClear
7:15 PM4.6 °F-6.2 °F61 %30.24 in10.0 miNNW (330°)16.1 mph19.6 mphClear
7:35 PM3.4 °F-8.7 °F57 %30.26 in10.0 miNNW (330°)12.7 mph20.7 mphClear
7:55 PM3.0 °F-10.3 °F54 %30.28 in10.0 miNNW (340°)11.5 mph23.0 mphClear
8:15 PM2.1 °F-10.3 °F56 %30.28 in10.0 miNorth (350°)13.8 mph21.9 mphClear
8:35 PM1.4 °F-10.3 °F58 %30.30 in10.0 miNNW (340°)12.7 mph18.4 mphClear
8:55 PM0.7 °F-10.3 °F60 %30.32 in10.0 miNNW (340°)10.4 mph16.1 mphClear
9:15 PM0.1 °F-10.1 °F62 %30.33 in10.0 miNorth (350°)8.1 mphClear
9:35 PM-0.4 °F-10.3 °F63 %30.34 in10.0 miNNW (330°)8.1 mphClear
9:55 PM-0.9 °F-10.3 °F65 %30.35 in10.0 miNNW (340°)6.9 mphClear
10:15 PM-1.3 °F-10.3 °F66 %30.36 in10.0 miNorth (360°)6.9 mphClear
10:35 PM-1.7 °F-10.3 °F67 %30.37 in10.0 miNNW (340°)5.8 mphClear
10:55 PM-1.8 °F-10.3 °F67 %30.38 in10.0 miNNW (340°)9.2 mphClear
11:15 PM-2.2 °F-10.3 °F68 %30.40 in10.0 miNW (320°)4.6 mph16.1 mphClear
11:35 PM-2.6 °F-10.3 °F70 %30.42 in10.0 miNNW (330°)5.8 mphClear
11:55 PM-3.3 °F-10.5 °F71 %30.42 in10.0 miNNW (340°)3.5 mphClear
Hourly data recorded from KSTE, located miles away from Plover, Wisconsin







STORIES FROM OUR PARTNERS